sat.trackr.live / text

‹ back to catalog

UNKNOWN

NORAD 81615

UNKNOWN UNKNOWN UNKNOWN

§ Identity

Operator
Country
Launch date
Launch site
Launch vehicle
Mass (kg)
RCS (m²)

External: N2YO · Heavens-Above

§ Orbital elements

Epoch: 2026-05-24T03:26:49.440192Z

Period
107.88 min
Inclination
65.8292°
Eccentricity
0.0766754
Mean motion
13.34759447 rev/d
Perigee alt
553.3 km
Apogee alt
1,704.5 km
Semi-major
7,507.0 km
B*
9.3437e-4
RAAN
43.4973°
Arg perigee
60.4637°
Mean anomaly
307.0621°
Rev number
60,453

§ Raw data

UNKNOWN1 81615U          26144.14362778  .00002571  00000+0  93437-3 0  99992 81615  65.8292  43.4973 0766754  60.4637 307.0621 13.34759447604530

JSON: /api/v1/satellites/81615 · /tle

For live sub-satellite position, see the globe view (requires WebGL).

§ Visibility from observer

Set your observer location to see the next 7 days of passes ≥ 10°. The values pass through the URL so the page stays shareable.

No JS? Fill the form by hand. The geolocation button needs JavaScript.